When you browse on this site, cookies collect data to enhance your experience and personalize the content and advertising you see.
Visit our Privacy Policy to learn more. By continuing to use the site, you agree to this use of cookies and data.
  • In Austria
  • List of Countries
  • For 7 days
  • Water Temperature
  • Weather Map
  • News
  • Weather Widgets
  • user-avatar
    Login

    Hourly Weather Bakans

    Today, 20 January, Monday

    Time Temperature Precipitation Wind Pressure Humidity
    00:00 -16°C° 1.1 mm 8 mps 725 mmHg 94%
    01:00 -15°C° 1.1 mm 8 mps 724 mmHg 93%
    02:00 -15°C° 1.1 mm 8 mps 722 mmHg 93%
    03:00 -13°C° 0.3 mm 7 mps 722 mmHg 92%
    04:00 -12°C° 0.3 mm 7 mps 722 mmHg 91%
    05:00 -11°C° 0.3 mm 6 mps 722 mmHg 91%
    06:00 -12°C° 0.1 mm 6 mps 723 mmHg 90%
    07:00 -12°C° 0.1 mm 6 mps 724 mmHg 90%
    08:00 -13°C° 0.1 mm 5 mps 725 mmHg 90%
    09:00 -13°C° 0 mm 5 mps 726 mmHg 89%
    10:00 -13°C° 0 mm 5 mps 727 mmHg 88%
    11:00 -12°C° 0 mm 5 mps 728 mmHg 87%
    12:00 -11°C° 0 mm 4 mps 729 mmHg 87%
    13:00 -10°C° 0 mm 4 mps 730 mmHg 88%
    14:00 -10°C° 0 mm 4 mps 730 mmHg 88%
    15:00 -11°C° 0 mm 4 mps 731 mmHg 89%
    16:00 -14°C° 0 mm 4 mps 731 mmHg 90%
    17:00 -15°C° 0 mm 4 mps 732 mmHg 92%
    18:00 -15°C° 0 mm 3 mps 732 mmHg 92%
    19:00 -16°C° 0 mm 3 mps 733 mmHg 92%
    20:00 -17°C° 0 mm 3 mps 734 mmHg 92%
    21:00 -18°C° 0 mm 3 mps 734 mmHg 91%
    22:00 -17°C° 0 mm 2 mps 734 mmHg 90%
    23:00 -18°C° 0 mm 2 mps 734 mmHg 89%

    Tomorrow, 21 January, Tuesday

    Time Temperature Precipitation Wind Pressure Humidity
    00:00 -18°C° 0 mm 2 mps 734 mmHg 90%
    01:00 -19°C° 0 mm 2 mps 734 mmHg 91%
    02:00 -19°C° 0 mm 2 mps 734 mmHg 91%
    03:00 -19°C° 0 mm 3 mps 735 mmHg 92%
    04:00 -19°C° 0 mm 3 mps 735 mmHg 93%
    05:00 -18°C° 0 mm 3 mps 735 mmHg 94%
    06:00 -18°C° 0 mm 3 mps 736 mmHg 94%
    07:00 -19°C° 0 mm 4 mps 736 mmHg 93%
    08:00 -19°C° 0 mm 4 mps 737 mmHg 92%
    09:00 -18°C° 0 mm 4 mps 738 mmHg 90%
    10:00 -18°C° 0 mm 5 mps 738 mmHg 88%
    11:00 -17°C° 0 mm 5 mps 739 mmHg 85%
    12:00 -17°C° 0 mm 5 mps 740 mmHg 85%
    13:00 -17°C° 0 mm 5 mps 740 mmHg 84%
    14:00 -17°C° 0 mm 5 mps 741 mmHg 83%
    15:00 -18°C° 0 mm 5 mps 741 mmHg 86%
    16:00 -19°C° 0 mm 4 mps 742 mmHg 88%
    17:00 -19°C° 0 mm 3 mps 743 mmHg 91%
    18:00 -21°C° 0 mm 3 mps 743 mmHg 92%
    19:00 -21°C° 0 mm 3 mps 744 mmHg 93%
    20:00 -22°C° 0 mm 3 mps 745 mmHg 93%
    21:00 -22°C° 0 mm 3 mps 745 mmHg 94%
    22:00 -20°C° 0 mm 2 mps 746 mmHg 94%
    23:00 -21°C° 0 mm 2 mps 746 mmHg 95%

    Day after tomorrow, 22 January, Wednesday

    Time Temperature Precipitation Wind Pressure Humidity
    00:00 -21°C° 0 mm 2 mps 746 mmHg 95%
    01:00 -21°C° 0 mm 2 mps 747 mmHg 96%
    02:00 -21°C° 0 mm 2 mps 747 mmHg 96%
    03:00 -21°C° 0 mm 2 mps 747 mmHg 95%
    04:00 -21°C° 0 mm 2 mps 747 mmHg 94%
    05:00 -21°C° 0 mm 2 mps 748 mmHg 94%
    06:00 -21°C° 0 mm 2 mps 748 mmHg 93%
    07:00 -21°C° 0 mm 2 mps 749 mmHg 93%
    08:00 -21°C° 0 mm 2 mps 749 mmHg 93%
    09:00 -18°C° 0 mm 2 mps 749 mmHg 92%
    10:00 -16°C° 0 mm 2 mps 750 mmHg 91%
    11:00 -14°C° 0 mm 2 mps 750 mmHg 91%
    12:00 -13°C° 0 mm 2 mps 750 mmHg 90%
    13:00 -12°C° 0 mm 2 mps 749 mmHg 90%
    14:00 -10°C° 0 mm 2 mps 749 mmHg 89%
    15:00 -12°C° 0 mm 2 mps 749 mmHg 91%
    16:00 -14°C° 0 mm 2 mps 749 mmHg 93%
    17:00 -13°C° 0 mm 1 mps 750 mmHg 95%
    18:00 -13°C° 0 mm 1 mps 750 mmHg 95%
    19:00 -14°C° 0 mm 1 mps 750 mmHg 96%
    20:00 -17°C° 0 mm 2 mps 750 mmHg 96%
    21:00 -17°C° 0 mm 2 mps 750 mmHg 96%
    22:00 -17°C° 0 mm 2 mps 750 mmHg 96%
    23:00 -17°C° 0 mm 2 mps 750 mmHg 96%

    23 January, Thursday

    Time Temperature Precipitation Wind Pressure Humidity
    00:00 -17°C° 0 mm 2 mps 749 mmHg 96%
    01:00 -18°C° 0 mm 2 mps 749 mmHg 96%
    02:00 -18°C° 0 mm 2 mps 749 mmHg 97%
    03:00 -18°C° 0 mm 2 mps 748 mmHg 96%
    04:00 -18°C° 0 mm 2 mps 748 mmHg 95%
    05:00 -18°C° 0 mm 2 mps 748 mmHg 94%
    06:00 -18°C° 0 mm 2 mps 748 mmHg 94%
    07:00 -17°C° 0 mm 2 mps 748 mmHg 94%
    08:00 -18°C° 0 mm 3 mps 748 mmHg 94%
    09:00 -16°C° 0 mm 3 mps 748 mmHg 93%
    10:00 -15°C° 0 mm 4 mps 747 mmHg 91%
    11:00 -12°C° 0 mm 5 mps 747 mmHg 90%
    12:00 -12°C° 0 mm 5 mps 746 mmHg 89%
    13:00 -11°C° 0 mm 6 mps 746 mmHg 88%
    14:00 -10°C° 0 mm 6 mps 745 mmHg 87%
    15:00 -11°C° 0 mm 5 mps 745 mmHg 88%
    16:00 -11°C° 0 mm 5 mps 744 mmHg 90%
    17:00 -11°C° 0 mm 4 mps 744 mmHg 91%
    18:00 -11°C° 0 mm 4 mps 744 mmHg 91%
    19:00 -11°C° 0 mm 4 mps 744 mmHg 92%
    20:00 -11°C° 0 mm 4 mps 744 mmHg 92%
    21:00 -11°C° 0 mm 4 mps 744 mmHg 93%
    22:00 -11°C° 0 mm 4 mps 743 mmHg 93%
    23:00 -10°C° 0 mm 4 mps 743 mmHg 93%

    24 January, Friday

    Time Temperature Precipitation Wind Pressure Humidity
    00:00 -10°C° 0 mm 4 mps 743 mmHg 93%
    01:00 -10°C° 0 mm 4 mps 743 mmHg 93%
    02:00 -9°C° 0 mm 3 mps 743 mmHg 93%
    03:00 -8°C° 0 mm 3 mps 743 mmHg 94%
    04:00 -8°C° 0 mm 3 mps 743 mmHg 94%
    05:00 -8°C° 0 mm 3 mps 743 mmHg 94%
    06:00 -8°C° 0 mm 3 mps 743 mmHg 94%
    07:00 -7°C° 0 mm 3 mps 743 mmHg 94%
    08:00 -7°C° 0 mm 3 mps 743 mmHg 94%
    09:00 -6°C° 0 mm 3 mps 743 mmHg 93%
    10:00 -5°C° 0 mm 3 mps 743 mmHg 92%
    11:00 -4°C° 0 mm 3 mps 744 mmHg 91%
    12:00 -2°C° 0 mm 3 mps 743 mmHg 90%
    13:00 -2°C° 0 mm 3 mps 743 mmHg 90%
    14:00 -2°C° 0 mm 3 mps 742 mmHg 90%
    15:00 -3°C° 0 mm 2 mps 743 mmHg 90%
    16:00 -3°C° 0 mm 2 mps 743 mmHg 91%
    17:00 -2°C° 0 mm 1 mps 743 mmHg 91%
    18:00 -3°C° 0 mm 1 mps 743 mmHg 91%
    19:00 -4°C° 0 mm 1 mps 743 mmHg 91%
    20:00 -6°C° 0 mm 1 mps 743 mmHg 91%
    21:00 -7°C° 0 mm 1 mps 743 mmHg 92%
    22:00 -8°C° 0 mm 1 mps 743 mmHg 94%
    23:00 -10°C° 0 mm 2 mps 743 mmHg 95%

    25 January, Saturday

    Time Temperature Precipitation Wind Pressure Humidity
    00:00 -10°C° 0 mm 2 mps 743 mmHg 95%
    01:00 -12°C° 0 mm 2 mps 743 mmHg 96%
    02:00 -12°C° 0 mm 2 mps 743 mmHg 96%
    03:00 -13°C° 0 mm 2 mps 743 mmHg 96%
    04:00 -14°C° 0 mm 2 mps 743 mmHg 96%
    05:00 -15°C° 0 mm 2 mps 744 mmHg 97%
    06:00 -14°C° 0 mm 1 mps 744 mmHg 96%
    07:00 -15°C° 0 mm 1 mps 744 mmHg 96%
    08:00 -16°C° 0 mm 1 mps 744 mmHg 96%
    09:00 -16°C° 0 mm 2 mps 744 mmHg 92%
    10:00 -15°C° 0 mm 2 mps 744 mmHg 89%
    11:00 -14°C° 0 mm 2 mps 744 mmHg 86%
    12:00 -14°C° 0 mm 2 mps 744 mmHg 85%
    13:00 -13°C° 0 mm 2 mps 743 mmHg 85%
    14:00 -13°C° 0 mm 2 mps 743 mmHg 84%
    15:00 -13°C° 0 mm 1 mps 743 mmHg 87%
    16:00 -15°C° 0 mm 1 mps 743 mmHg 90%
    17:00 -17°C° 0 mm 1 mps 743 mmHg 93%
    18:00 -17°C° 0 mm 1 mps 743 mmHg 92%
    19:00 -16°C° 0 mm 0 mps 743 mmHg 91%
    20:00 -16°C° 0 mm 0 mps 743 mmHg 90%
    21:00 -16°C° 0 mm 0 mps 743 mmHg 90%
    22:00 -16°C° 0 mm 0 mps 743 mmHg 90%
    23:00 -16°C° 0 mm 0 mps 743 mmHg 89%
    Show more